When you browse on this site, cookies collect data to enhance your experience and personalize the content and advertising you see.
Visit our Privacy Policy to learn more. By continuing to use the site, you agree to this use of cookies and data.
  • In Lithuania
  • List of Countries
  • For 7 days
  • Water Temperature
  • Satellite Maps
  • Weather Map
  • Weather Widgets
  • user-avatar
    Login

    Hourly Weather Montreal

    Today, 17 July, Wednesday

    Time Temperature Precipitation Wind Pressure Humidity
    00:00 +23°C° 0.1 mm 5 mps 754 mmHg 83%
    01:00 +23°C° 0.1 mm 5 mps 754 mmHg 84%
    02:00 +23°C° 0 mm 4 mps 754 mmHg 87%
    03:00 +22°C° 0 mm 4 mps 753 mmHg 90%
    04:00 +22°C° 0 mm 4 mps 753 mmHg 92%
    05:00 +22°C° 0 mm 4 mps 754 mmHg 91%
    06:00 +23°C° 0 mm 4 mps 754 mmHg 91%
    07:00 +23°C° 0 mm 4 mps 755 mmHg 90%
    08:00 +25°C° 0 mm 3 mps 755 mmHg 85%
    09:00 +26°C° 0 mm 3 mps 755 mmHg 80%
    10:00 +27°C° 0 mm 2 mps 755 mmHg 75%
    11:00 +28°C° 0.4 mm 3 mps 755 mmHg 72%
    12:00 +28°C° 0.4 mm 3 mps 755 mmHg 69%
    13:00 +29°C° 0.4 mm 3 mps 755 mmHg 66%
    14:00 +29°C° 0.2 mm 3 mps 755 mmHg 65%
    15:00 +29°C° 0.2 mm 2 mps 755 mmHg 65%
    16:00 +29°C° 0.2 mm 2 mps 755 mmHg 64%
    17:00 +28°C° 0.1 mm 2 mps 755 mmHg 67%
    18:00 +27°C° 0.1 mm 2 mps 756 mmHg 70%
    19:00 +25°C° 0.1 mm 2 mps 756 mmHg 73%
    20:00 +24°C° 0 mm 2 mps 756 mmHg 74%
    21:00 +23°C° 0 mm 2 mps 757 mmHg 74%
    22:00 +21°C° 0 mm 2 mps 757 mmHg 75%
    23:00 +20°C° 0 mm 3 mps 757 mmHg 73%

    Tomorrow, 18 July, Thursday

    Time Temperature Precipitation Wind Pressure Humidity
    00:00 +20°C° 0 mm 3 mps 757 mmHg 72%
    01:00 +19°C° 0 mm 3 mps 757 mmHg 70%
    02:00 +18°C° 0 mm 3 mps 757 mmHg 71%
    03:00 +17°C° 0 mm 3 mps 757 mmHg 72%
    04:00 +15°C° 0 mm 4 mps 757 mmHg 74%
    05:00 +17°C° 0 mm 4 mps 758 mmHg 72%
    06:00 +18°C° 0 mm 4 mps 758 mmHg 70%
    07:00 +18°C° 0 mm 4 mps 758 mmHg 68%
    08:00 +20°C° 0 mm 4 mps 758 mmHg 64%
    09:00 +22°C° 0 mm 4 mps 757 mmHg 61%
    10:00 +25°C° 0 mm 4 mps 757 mmHg 57%
    11:00 +26°C° 0 mm 4 mps 757 mmHg 56%
    12:00 +27°C° 0 mm 3 mps 756 mmHg 55%
    13:00 +28°C° 0 mm 3 mps 756 mmHg 53%
    14:00 +28°C° 0 mm 3 mps 755 mmHg 56%
    15:00 +28°C° 0 mm 3 mps 755 mmHg 59%
    16:00 +29°C° 0 mm 3 mps 754 mmHg 62%
    17:00 +28°C° 0 mm 3 mps 755 mmHg 66%
    18:00 +27°C° 0 mm 3 mps 755 mmHg 71%
    19:00 +26°C° 0 mm 3 mps 755 mmHg 75%
    20:00 +25°C° 0 mm 3 mps 755 mmHg 76%
    21:00 +24°C° 0 mm 3 mps 755 mmHg 77%
    22:00 +22°C° 0 mm 3 mps 754 mmHg 79%
    23:00 +23°C° 0 mm 2 mps 754 mmHg 82%

    Day after tomorrow, 19 July, Friday

    Time Temperature Precipitation Wind Pressure Humidity
    00:00 +21°C° 0 mm 2 mps 754 mmHg 86%
    01:00 +21°C° 0 mm 2 mps 754 mmHg 89%
    02:00 +21°C° 0 mm 2 mps 754 mmHg 91%
    03:00 +20°C° 0 mm 2 mps 754 mmHg 92%
    04:00 +20°C° 0 mm 2 mps 754 mmHg 93%
    05:00 +21°C° 0 mm 3 mps 754 mmHg 91%
    06:00 +22°C° 0 mm 3 mps 754 mmHg 88%
    07:00 +23°C° 0 mm 4 mps 753 mmHg 86%
    08:00 +25°C° 0 mm 4 mps 753 mmHg 82%
    09:00 +26°C° 0 mm 4 mps 753 mmHg 78%
    10:00 +28°C° 0 mm 5 mps 752 mmHg 74%
    11:00 +29°C° 0 mm 5 mps 752 mmHg 71%
    12:00 +30°C° 0 mm 5 mps 752 mmHg 68%
    13:00 +33°C° 0 mm 5 mps 752 mmHg 65%
    14:00 +33°C° 0.4 mm 5 mps 751 mmHg 68%
    15:00 +33°C° 0.4 mm 5 mps 751 mmHg 71%
    16:00 +33°C° 0.4 mm 6 mps 750 mmHg 73%
    17:00 +32°C° 0.3 mm 6 mps 751 mmHg 77%
    18:00 +30°C° 0.3 mm 5 mps 751 mmHg 81%
    19:00 +29°C° 0.3 mm 5 mps 751 mmHg 84%
    20:00 +29°C° 0 mm 5 mps 751 mmHg 86%
    21:00 +28°C° 0 mm 5 mps 751 mmHg 88%
    22:00 +28°C° 0 mm 5 mps 751 mmHg 91%
    23:00 +28°C° 0 mm 5 mps 751 mmHg 91%

    20 July, Saturday

    Time Temperature Precipitation Wind Pressure Humidity
    00:00 +27°C° 0 mm 5 mps 751 mmHg 91%
    01:00 +27°C° 0 mm 5 mps 751 mmHg 92%
    02:00 +27°C° 0 mm 5 mps 751 mmHg 92%
    03:00 +26°C° 0 mm 5 mps 751 mmHg 92%
    04:00 +26°C° 0 mm 5 mps 751 mmHg 92%
    05:00 +26°C° 0 mm 5 mps 751 mmHg 90%
    06:00 +27°C° 0 mm 5 mps 751 mmHg 89%
    07:00 +27°C° 0 mm 5 mps 751 mmHg 87%
    08:00 +28°C° 0 mm 6 mps 751 mmHg 83%
    09:00 +29°C° 0 mm 6 mps 751 mmHg 80%
    10:00 +30°C° 0 mm 7 mps 751 mmHg 77%
    11:00 +32°C° 0.5 mm 7 mps 751 mmHg 74%
    12:00 +33°C° 0.5 mm 7 mps 750 mmHg 70%
    13:00 +34°C° 0.5 mm 7 mps 750 mmHg 66%
    14:00 +33°C° 0.7 mm 7 mps 750 mmHg 68%
    15:00 +33°C° 0.7 mm 6 mps 750 mmHg 69%
    16:00 +33°C° 0.7 mm 6 mps 750 mmHg 71%
    17:00 +32°C° 0.3 mm 5 mps 750 mmHg 73%
    18:00 +30°C° 0.3 mm 4 mps 750 mmHg 75%
    19:00 +29°C° 0.3 mm 3 mps 751 mmHg 77%
    20:00 +28°C° 0 mm 3 mps 751 mmHg 78%
    21:00 +27°C° 0 mm 3 mps 751 mmHg 80%
    22:00 +26°C° 0 mm 2 mps 751 mmHg 81%
    23:00 +25°C° 0 mm 2 mps 751 mmHg 78%

    21 July, Sunday

    Time Temperature Precipitation Wind Pressure Humidity
    00:00 +24°C° 0 mm 2 mps 751 mmHg 75%
    01:00 +24°C° 0 mm 2 mps 751 mmHg 71%
    02:00 +23°C° 0 mm 2 mps 752 mmHg 69%
    03:00 +21°C° 0 mm 2 mps 752 mmHg 67%
    04:00 +20°C° 0 mm 2 mps 752 mmHg 65%
    05:00 +21°C° 0 mm 2 mps 752 mmHg 65%
    06:00 +21°C° 0 mm 2 mps 752 mmHg 64%
    07:00 +23°C° 0 mm 2 mps 753 mmHg 64%
    08:00 +24°C° 0 mm 2 mps 752 mmHg 63%
    09:00 +25°C° 0 mm 2 mps 752 mmHg 61%
    10:00 +26°C° 0 mm 2 mps 752 mmHg 59%
    11:00 +27°C° 0 mm 2 mps 752 mmHg 58%
    12:00 +28°C° 0 mm 2 mps 751 mmHg 57%
    13:00 +29°C° 0 mm 2 mps 751 mmHg 56%
    14:00 +29°C° 0.1 mm 2 mps 751 mmHg 60%
    15:00 +28°C° 0.1 mm 2 mps 751 mmHg 64%
    16:00 +28°C° 0.1 mm 3 mps 752 mmHg 68%
    17:00 +27°C° 0.1 mm 3 mps 752 mmHg 67%
    18:00 +26°C° 0.1 mm 3 mps 752 mmHg 67%
    19:00 +24°C° 0.1 mm 3 mps 752 mmHg 66%
    20:00 +22°C° 0 mm 3 mps 752 mmHg 65%
    21:00 +21°C° 0 mm 3 mps 752 mmHg 64%
    22:00 +20°C° 0 mm 3 mps 752 mmHg 64%
    23:00 +20°C° 0 mm 2 mps 752 mmHg 63%

    22 July, Monday

    Time Temperature Precipitation Wind Pressure Humidity
    00:00 +19°C° 0 mm 2 mps 752 mmHg 62%
    01:00 +18°C° 0 mm 2 mps 753 mmHg 62%
    02:00 +18°C° 0 mm 2 mps 753 mmHg 63%
    03:00 +17°C° 0 mm 2 mps 753 mmHg 63%
    04:00 +17°C° 0 mm 2 mps 753 mmHg 64%
    05:00 +18°C° 0 mm 2 mps 753 mmHg 64%
    06:00 +19°C° 0 mm 2 mps 753 mmHg 63%
    07:00 +20°C° 0 mm 2 mps 753 mmHg 63%
    08:00 +21°C° 0 mm 2 mps 753 mmHg 59%
    09:00 +24°C° 0 mm 3 mps 753 mmHg 54%
    10:00 +26°C° 0 mm 3 mps 753 mmHg 50%
    11:00 +26°C° 0 mm 4 mps 753 mmHg 47%
    12:00 +27°C° 0 mm 5 mps 753 mmHg 44%
    13:00 +28°C° 0 mm 5 mps 752 mmHg 41%
    14:00 +28°C° 0 mm 5 mps 752 mmHg 42%
    15:00 +27°C° 0 mm 5 mps 752 mmHg 44%
    16:00 +27°C° 0 mm 5 mps 752 mmHg 46%
    17:00 +26°C° 0 mm 4 mps 753 mmHg 49%
    18:00 +24°C° 0 mm 3 mps 753 mmHg 52%
    19:00 +22°C° 0 mm 3 mps 753 mmHg 56%
    20:00 +21°C° 0 mm 2 mps 754 mmHg 57%
    21:00 +20°C° 0 mm 2 mps 754 mmHg 59%
    22:00 +20°C° 0 mm 1 mps 754 mmHg 60%
    23:00 +18°C° 0 mm 2 mps 754 mmHg 60%
    Show more